When you browse on this site, cookies collect data to enhance your experience and personalize the content and advertising you see.
Visit our Privacy Policy to learn more. By continuing to use the site, you agree to this use of cookies and data.
  • In Lithuania
  • List of Countries
  • For 7 days
  • Water Temperature
  • Weather Map
  • Weather Widgets
  • user-avatar
    Login

    Hourly Weather Deviche

    Today, 8 December, Sunday

    Time Temperature Precipitation Wind Pressure Humidity
    00:00 -3°C° 0 mm 6 mps 726 mmHg 92%
    01:00 -3°C° 0 mm 6 mps 726 mmHg 92%
    02:00 -2°C° 0 mm 6 mps 726 mmHg 93%
    03:00 -1°C° 0.1 mm 6 mps 725 mmHg 92%
    04:00 -1°C° 0.1 mm 6 mps 725 mmHg 91%
    05:00 +1°C° 0.1 mm 6 mps 724 mmHg 90%
    06:00 +1°C° 0.1 mm 6 mps 725 mmHg 88%
    07:00 -1°C° 0.1 mm 6 mps 725 mmHg 87%
    08:00 -1°C° 0.1 mm 6 mps 726 mmHg 86%
    09:00 -1°C° 0.2 mm 6 mps 726 mmHg 87%
    10:00 -2°C° 0.2 mm 6 mps 727 mmHg 88%
    11:00 -2°C° 0.2 mm 6 mps 727 mmHg 90%
    12:00 -2°C° 0.1 mm 6 mps 728 mmHg 86%
    13:00 -1°C° 0.1 mm 5 mps 729 mmHg 83%
    14:00 0°C° 0.1 mm 5 mps 729 mmHg 79%
    15:00 -1°C° 0 mm 5 mps 730 mmHg 82%
    16:00 -1°C° 0 mm 4 mps 730 mmHg 84%
    17:00 -2°C° 0 mm 4 mps 730 mmHg 87%
    18:00 -2°C° 0 mm 4 mps 731 mmHg 86%
    19:00 -2°C° 0 mm 4 mps 731 mmHg 85%
    20:00 -2°C° 0 mm 5 mps 731 mmHg 84%
    21:00 -2°C° 0 mm 5 mps 731 mmHg 88%
    22:00 -1°C° 0 mm 5 mps 730 mmHg 91%
    23:00 -1°C° 0 mm 5 mps 730 mmHg 94%

    Tomorrow, 9 December, Monday

    Time Temperature Precipitation Wind Pressure Humidity
    00:00 0°C° 0.2 mm 5 mps 730 mmHg 94%
    01:00 -1°C° 0.2 mm 6 mps 729 mmHg 93%
    02:00 +1°C° 0.2 mm 6 mps 729 mmHg 92%
    03:00 +1°C° 0.1 mm 6 mps 729 mmHg 92%
    04:00 +2°C° 0.1 mm 6 mps 728 mmHg 92%
    05:00 +2°C° 0.1 mm 6 mps 728 mmHg 92%
    06:00 +2°C° 0.1 mm 6 mps 728 mmHg 92%
    07:00 +2°C° 0.1 mm 6 mps 728 mmHg 91%
    08:00 +2°C° 0.1 mm 6 mps 728 mmHg 91%
    09:00 +2°C° 0.2 mm 6 mps 728 mmHg 91%
    10:00 +2°C° 0.2 mm 6 mps 728 mmHg 90%
    11:00 +2°C° 0.2 mm 6 mps 728 mmHg 90%
    12:00 +2°C° 0.1 mm 5 mps 729 mmHg 90%
    13:00 +2°C° 0.1 mm 5 mps 729 mmHg 90%
    14:00 +3°C° 0.1 mm 4 mps 729 mmHg 90%
    15:00 +3°C° 0.2 mm 4 mps 729 mmHg 91%
    16:00 +3°C° 0.2 mm 4 mps 730 mmHg 92%
    17:00 +3°C° 0.2 mm 4 mps 730 mmHg 93%
    18:00 +3°C° 0 mm 4 mps 730 mmHg 92%
    19:00 +3°C° 0 mm 4 mps 731 mmHg 91%
    20:00 +3°C° 0 mm 4 mps 731 mmHg 91%
    21:00 +3°C° 0 mm 4 mps 732 mmHg 91%
    22:00 +3°C° 0 mm 4 mps 732 mmHg 91%
    23:00 +3°C° 0 mm 4 mps 732 mmHg 92%

    Day after tomorrow, 10 December, Tuesday

    Time Temperature Precipitation Wind Pressure Humidity
    00:00 +3°C° 0 mm 4 mps 733 mmHg 92%
    01:00 +1°C° 0 mm 4 mps 733 mmHg 92%
    02:00 +1°C° 0 mm 4 mps 733 mmHg 92%
    03:00 +2°C° 0.1 mm 3 mps 733 mmHg 93%
    04:00 +3°C° 0.1 mm 3 mps 733 mmHg 93%
    05:00 +3°C° 0.1 mm 3 mps 734 mmHg 93%
    06:00 +3°C° 0 mm 3 mps 734 mmHg 93%
    07:00 +2°C° 0 mm 3 mps 734 mmHg 93%
    08:00 +2°C° 0 mm 3 mps 734 mmHg 93%
    09:00 +2°C° 0 mm 3 mps 735 mmHg 91%
    10:00 +3°C° 0 mm 4 mps 735 mmHg 89%
    11:00 +3°C° 0 mm 4 mps 735 mmHg 88%
    12:00 +3°C° 0 mm 4 mps 735 mmHg 88%
    13:00 +3°C° 0 mm 4 mps 735 mmHg 89%
    14:00 +3°C° 0 mm 4 mps 735 mmHg 89%
    15:00 +1°C° 0 mm 4 mps 735 mmHg 90%
    16:00 +1°C° 0 mm 4 mps 735 mmHg 92%
    17:00 +1°C° 0 mm 4 mps 735 mmHg 93%
    18:00 +1°C° 0.4 mm 4 mps 736 mmHg 94%
    19:00 0°C° 0.4 mm 4 mps 736 mmHg 95%
    20:00 0°C° 0.4 mm 5 mps 737 mmHg 96%
    21:00 -1°C° 0.3 mm 4 mps 737 mmHg 89%
    22:00 -2°C° 0.3 mm 4 mps 738 mmHg 82%
    23:00 -2°C° 0.3 mm 4 mps 739 mmHg 76%

    11 December, Wednesday

    Time Temperature Precipitation Wind Pressure Humidity
    00:00 -3°C° 0 mm 4 mps 739 mmHg 77%
    01:00 -3°C° 0 mm 4 mps 740 mmHg 78%
    02:00 -4°C° 0 mm 4 mps 741 mmHg 80%
    03:00 -4°C° 0 mm 4 mps 742 mmHg 77%
    04:00 -4°C° 0 mm 4 mps 742 mmHg 75%
    05:00 -4°C° 0 mm 4 mps 743 mmHg 72%
    06:00 -4°C° 0 mm 4 mps 743 mmHg 71%
    07:00 -4°C° 0 mm 3 mps 744 mmHg 71%
    08:00 -4°C° 0 mm 3 mps 744 mmHg 70%
    09:00 -4°C° 0 mm 3 mps 744 mmHg 69%
    10:00 -2°C° 0 mm 3 mps 745 mmHg 68%
    11:00 -2°C° 0 mm 3 mps 745 mmHg 67%
    12:00 -2°C° 0 mm 3 mps 745 mmHg 68%
    13:00 -2°C° 0 mm 2 mps 745 mmHg 69%
    14:00 -2°C° 0 mm 2 mps 745 mmHg 70%
    15:00 -2°C° 0 mm 2 mps 745 mmHg 71%
    16:00 -2°C° 0 mm 2 mps 746 mmHg 72%
    17:00 -2°C° 0 mm 2 mps 746 mmHg 72%
    18:00 -2°C° 0 mm 2 mps 746 mmHg 72%
    19:00 -2°C° 0 mm 2 mps 746 mmHg 71%
    20:00 -2°C° 0 mm 2 mps 746 mmHg 71%
    21:00 -2°C° 0 mm 3 mps 746 mmHg 67%
    22:00 -2°C° 0 mm 3 mps 745 mmHg 62%
    23:00 -2°C° 0 mm 3 mps 745 mmHg 58%

    12 December, Thursday

    Time Temperature Precipitation Wind Pressure Humidity
    00:00 -2°C° 0 mm 3 mps 745 mmHg 55%
    01:00 -2°C° 0 mm 3 mps 745 mmHg 52%
    02:00 -2°C° 0 mm 3 mps 745 mmHg 49%
    03:00 -2°C° 0 mm 3 mps 745 mmHg 50%
    04:00 -2°C° 0 mm 3 mps 744 mmHg 51%
    05:00 -4°C° 0 mm 3 mps 744 mmHg 52%
    06:00 -4°C° 0 mm 3 mps 744 mmHg 54%
    07:00 -4°C° 0 mm 3 mps 744 mmHg 57%
    08:00 -4°C° 0 mm 3 mps 744 mmHg 59%
    09:00 -4°C° 0 mm 3 mps 744 mmHg 61%
    10:00 -4°C° 0 mm 3 mps 744 mmHg 62%
    11:00 -2°C° 0 mm 3 mps 744 mmHg 64%
    12:00 -2°C° 0 mm 3 mps 744 mmHg 62%
    13:00 -2°C° 0 mm 3 mps 743 mmHg 61%
    14:00 -2°C° 0 mm 3 mps 743 mmHg 60%
    15:00 -2°C° 0 mm 3 mps 743 mmHg 62%
    16:00 -4°C° 0 mm 3 mps 743 mmHg 63%
    17:00 -4°C° 0 mm 3 mps 743 mmHg 65%
    18:00 -4°C° 0 mm 3 mps 743 mmHg 66%
    19:00 -4°C° 0 mm 3 mps 742 mmHg 68%
    20:00 -4°C° 0 mm 3 mps 742 mmHg 69%
    21:00 -4°C° 0 mm 3 mps 742 mmHg 69%
    22:00 -5°C° 0 mm 3 mps 742 mmHg 68%
    23:00 -5°C° 0 mm 3 mps 742 mmHg 68%

    13 December, Friday

    Time Temperature Precipitation Wind Pressure Humidity
    00:00 -5°C° 0 mm 3 mps 742 mmHg 66%
    01:00 -5°C° 0 mm 3 mps 742 mmHg 63%
    02:00 -5°C° 0 mm 3 mps 742 mmHg 61%
    03:00 -5°C° 0 mm 3 mps 741 mmHg 61%
    04:00 -6°C° 0 mm 3 mps 741 mmHg 61%
    05:00 -7°C° 0 mm 4 mps 741 mmHg 61%
    06:00 -7°C° 0 mm 4 mps 741 mmHg 64%
    07:00 -7°C° 0 mm 4 mps 741 mmHg 66%
    08:00 -7°C° 0 mm 4 mps 741 mmHg 69%
    09:00 -7°C° 0 mm 4 mps 741 mmHg 67%
    10:00 -7°C° 0 mm 4 mps 740 mmHg 66%
    11:00 -5°C° 0 mm 4 mps 740 mmHg 65%
    12:00 -5°C° 0 mm 4 mps 740 mmHg 62%
    13:00 -5°C° 0 mm 4 mps 739 mmHg 60%
    14:00 -5°C° 0 mm 4 mps 739 mmHg 57%
    15:00 -5°C° 0 mm 4 mps 739 mmHg 56%
    16:00 -6°C° 0 mm 5 mps 739 mmHg 54%
    17:00 -6°C° 0 mm 5 mps 739 mmHg 53%
    18:00 -6°C° 0 mm 5 mps 739 mmHg 53%
    19:00 -6°C° 0 mm 5 mps 738 mmHg 53%
    20:00 -6°C° 0 mm 5 mps 738 mmHg 54%
    21:00 -6°C° 0 mm 5 mps 738 mmHg 52%
    22:00 -6°C° 0 mm 5 mps 738 mmHg 50%
    23:00 -6°C° 0 mm 5 mps 738 mmHg 48%
    Show more